Regional Weather Roundup
Issued by NWS

Home | Current Version | Previous Version | Text Only | Print | Product List | Glossary Off
Versions: 1 2 3 4 5 6 7 8 9 10 11 12 13 14 15 16 17 18 19 20 21 22 23 24 25 26 27 28 29 30 31 32 33 34 35 36 37 38 39 40 41 42 43 44 45 46 47 48 49 50

000
ASUS43 KIND 250209
RWRIN

WEATHER ROUNDUP FOR INDIANA
NATIONAL WEATHER SERVICE INDIANAPOLIS IN
1000 PM EDT FRI APR 24 2015

NOTE: "FAIR" INDICATES FEW OR NO CLOUDS BELOW 12,000 FEET WITH NO
SIGNIFICANT WEATHER AND/OR OBSTRUCTIONS TO VISIBILITY.

* - STATION DOES NOT REPORT WEATHER SUCH AS PRECIPITATION OR FOG.

+ - STATION NOT QUALITY CONTROLLED BY THE NATIONAL WEATHER SERVICE.
    USE DATA WITH CAUTION...ESPECIALLY DEWPOINT AND RELATIVE
    HUMIDITY OBSERVATIONS.

INZ001>003-010>013-019-020-250300-
NORTHWEST INDIANA

CITY           SKY/WX    TMP DP  RH WIND       PRES   REMARKS
GARY /AIRPORT/ CLOUDY    46  25  42 E12G23    29.92F
KNOX *+        CLOUDY    54  -4   9 E5        29.90S
LA PORTE +     CLOUDY    52  28  40 NE10      29.92F
MICHIGAN CITY+ CLOUDY    48  23  37 NE7       29.92F
MONTICELLO +   CLOUDY    56  31  39 CALM      29.89F
RENSSELAER +   LGT RAIN  55  34  44 S6        29.89F
VALPARAISO     CLOUDY    50  28  42 NE9       29.90F

$$

LMZ046-743>745-250300-
SOUTHERN LAKE MICHIGAN

STATION/POSITION TIME  TEMP    WIND        PRES    WAVE
                       AIR SEA DIR/SP/G            HT
                 (UTC) (F)     (DEG/KT/KT) (MB)    (FT)
BURNS HARBOR     0200   48      60/ 18/ 22 1013.2F
MICHIGAN CITY    0200   47      30/ 14/ 16   N/A
5NW MICH CITY    0200   44 44   60/ 16/ 19   N/A     3

$$

INZ004-005-014>016-021>024-250300-
NORTH CENTRAL INDIANA

CITY           SKY/WX    TMP DP  RH WIND       PRES   REMARKS
GOSHEN         CLOUDY    52  30  43 NE10      29.94S
LOGANSPORT +   CLOUDY    52  34  50 E6        29.91F
PERU/GRISSOM   CLOUDY    54  35  49 E6        29.90F
ROCHESTER +    CLOUDY    54  36  50 E6        29.92S
SOUTH BEND     CLOUDY    51  28  41 NE7       29.94F
WARSAW +       CLOUDY    54  28  37 CALM      29.93S

$$

INZ006>009-017-018-025>027-250300-
NORTHEAST INDIANA

CITY           SKY/WX    TMP DP  RH WIND       PRES   REMARKS
ANGOLA *+      CLOUDY    48  32  53 N7        29.96S
AUBURN +       CLOUDY    52  32  46 E3        29.95S
FORT WAYNE     CLOUDY    52  34  50 E5        29.94S
HUNTINGTON +   CLOUDY    53  29  39 CALM      29.93S

$$

INZ028-029-035-036-043>045-051>053-250300-
WEST CENTRAL INDIANA

CITY           SKY/WX    TMP DP  RH WIND       PRES   REMARKS
CRAWFORDSVL +  CLOUDY    52  29  40 SE8       29.86F
GREENCASTLE +  CLOUDY    55  27  33 SE6       29.88F
LAFAYETTE      CLOUDY    51  41  68 NE10      29.87F
TERRE HAUTE    CLOUDY    56  37  49 SE5       29.87F

$$

INZ030>032-037>040-046>048-054>057-064-065-250300-
CENTRAL INDIANA

CITY           SKY/WX    TMP DP  RH WIND       PRES   REMARKS
CP ATTERBURY + CLOUDY    55  32  41 SE3       29.91F
COLUMBUS       CLOUDY    55  27  33 CALM      29.91F
FISHERS *+     CLOUDY    55  34  44 SE6       29.90F
FRANKFORT +    CLOUDY    54  36  49 E6        29.91S
GREENWOOD *+   CLOUDY    54  32  43 S3        29.92S
INDIANAPOLIS   CLOUDY    57  25  29 S12       29.89S
-EAGLE CREEK   CLOUDY    57  25  29 SE7       29.89F
KOKOMO *+      CLOUDY    54  34  47 E7        29.91S
MARION +       CLOUDY    54  29  37 CALM      29.93S
MT COMFORT *+  CLOUDY    55  18  22 SE6       29.91F
SHELBYVILLE    CLOUDY    58  35  42 SE5       29.90F
ZIONSVILLE +   CLOUDY    56  27  32 SE6       29.90F

$$

INZ033-034-041-042-049-050-058-059-250300-
EAST CENTRAL INDIANA

CITY           SKY/WX    TMP DP  RH WIND       PRES   REMARKS
MUNCIE         CLOUDY    55  31  39 SE6       29.92S

$$

INZ060-061-067>069-081>083-085>088-250300-
SOUTHWEST INDIANA

CITY           SKY/WX    TMP DP  RH WIND       PRES   REMARKS
EVANSVILLE     CLOUDY    57  40  52 SE7       29.88F
HUNTINGBURG *+ CLOUDY    57  34  41 S9        29.90S
WASHINGTON +   CLOUDY    58  32  38 S7        29.87F

$$

INZ062-063-066-070>080-084-089>092-250300-
SOUTH CENTRAL AND SOUTHEAST INDIANA

CITY           SKY/WX    TMP DP  RH WIND       PRES   REMARKS
BEDFORD +      CLOUDY    59  27  29 SE5       29.89F
BLOOMINGTON    CLOUDY    58  28  32 SE6       29.88F
MADISON *+     CLOUDY    57  27  30 SE3       29.94F
NORTH VERNON + CLOUDY    59  25  27 CALM      29.93F
SEYMOUR +      CLOUDY    57  36  44 SE5       29.91F

$$



USA.gov is the U.S. government's official web portal to all federal, state and local government web resources and services.